FW9692 Weather Reports


Display with metric or nautical units.
time (UTC)temp
F
wind
direction
speed
MPH
gust
MPH
rain 1hr
in
rain 24hr
in
rain mn
in
humidity
%
barometer
mb
20260502163035 56 192 6.0 9.0 0.00 0.19 0.00 62 1016.5
20260502161626 56 196 4.0 10.0 0.00 0.19 0.00 67 1016.5
20260502151619 55 105 5.0 12.0 0.00 0.36 0.00 72 1016.2
20260502123017 50 31 7.0 9.0 0.00 0.84 0.00 84 1014.9
20260502121608 50 36 5.0 8.0 0.00 0.84 0.00 84 1014.6
20260502120112 49 25 5.0 6.0 0.00 0.84 0.00 84 1014.6
20260502114601 49 22 4.0 7.0 0.00 0.84 0.00 84 1014.5
20260502113052 49 344 5.0 9.0 0.00 0.94 0.00 83 1014.4
20260502111555 49 31 8.0 9.0 0.00 0.94 0.00 83 1014.0
20260502110044 49 33 6.0 9.0 0.00 0.94 0.00 84 1013.9
20260502104550 49 22 5.0 8.0 0.00 0.94 0.00 84 1013.9
20260502103043 49 9 6.0 7.0 0.00 1.06 0.00 84 1013.9
20260502101547 49 11 6.0 8.0 0.00 1.06 0.00 84 1014.0
20260502091528 50 346 7.0 9.0 0.00 1.18 0.00 83 1013.5
20260502071534 51 9 8.0 10.0 0.00 1.36 1.28 84 1013.6
20260502070021 51 346 9.0 11.0 0.00 1.36 1.28 83 1013.7
20260502064514 51 9 9.0 11.0 0.00 1.36 1.28 83 1013.7
20260502063010 51 11 10.0 14.0 0.00 1.44 1.28 81 1013.7
20260502061504 51 15 9.0 11.0 0.00 1.44 1.28 80 1013.6
20260502060009 51 25 7.0 11.0 0.00 1.44 1.28 80 1013.5
20260502054509 51 25 8.0 10.0 0.00 1.44 1.28 80 1013.4
20260502053103 51 24 8.0 12.0 0.00 1.46 1.28 81 1013.3
20260502051643 51 10 9.0 12.0 0.00 1.46 1.28 81 1013.4
20260502050046 51 16 8.0 11.0 0.00 1.46 1.28 81 1013.3
20260502044542 51 27 9.0 12.0 0.00 1.46 1.28 81 1013.2
20260502043043 51 19 8.0 11.0 0.00 1.46 1.28 83 1013.2
20260502041533 51 24 8.0 11.0 0.00 1.46 1.28 83 1013.0
20260502040002 52 29 9.0 14.0 0.00 1.46 1.28 83 1012.9
20260502034557 52 41 11.0 14.0 0.00 1.46 1.28 83 1012.6
20260502033056 52 43 9.0 13.0 0.00 1.46 1.28 84 1012.4
20260502031607 52 44 9.0 13.0 0.00 1.46 1.28 85 1012.1
20260502030016 51 61 11.0 16.0 0.00 1.46 1.28 86 1011.6
20260502024511 51 57 13.0 18.0 0.00 1.46 1.28 87 1011.3
20260502023007 51 57 15.0 20.0 0.00 1.46 1.28 88 1010.9
20260502021503 51 53 16.0 22.0 0.01 1.46 1.28 88 1010.5
20260502020018 50 57 17.0 23.0 0.01 1.46 1.28 89 1010.2
20260502014522 50 57 21.0 26.0 0.02 1.46 1.28 89 1009.7
20260502013012 51 49 18.0 27.0 0.03 1.46 1.28 89 1009.3
20260502011511 52 56 14.0 20.0 0.04 1.46 1.28 89 1009.2
20260502010057 51 61 16.0 22.0 0.04 1.45 1.27 89 1008.9
20260502004553 51 47 20.0 26.0 0.04 1.44 1.26 89 1008.7
20260502003051 52 38 20.0 25.0 0.04 1.43 1.25 88 1008.5
20260502001548 52 47 19.0 24.0 0.03 1.42 1.24 88 1008.2
20260502000045 53 36 20.0 24.0 0.02 1.41 1.23 86 1007.9
20260501234550 54 51 16.0 24.0 0.01 1.40 1.22 85 1007.4
20260501233037 55 47 18.0 27.0 0.00 1.39 1.21 83 1007.0
20260501231546 55 64 21.0 28.0 0.00 1.39 1.21 82 1006.6
20260501230038 56 78 19.0 24.0 0.00 1.39 1.21 83 1006.3
20260501224533 56 83 19.0 25.0 0.01 1.39 1.21 83 1005.9
20260501223029 56 76 20.0 25.0 0.01 1.39 1.21 84 1005.5
20260501221530 57 92 18.0 25.0 0.01 1.39 1.21 83 1005.1
20260501220027 56 83 17.0 23.0 0.01 1.39 1.21 85 1005.2
20260501214535 56 84 19.0 25.0 0.01 1.39 1.21 85 1005.1
20260501213026 56 84 19.0 25.0 0.00 1.38 1.20 85 1004.9
20260501211524 57 83 17.0 27.0 0.00 1.38 1.20 83 1004.9
20260501210010 57 86 21.0 30.0 0.00 1.38 1.20 83 1004.8
20260501204611 57 95 19.0 25.0 0.00 1.38 1.20 84 1004.6
20260501203010 57 104 19.0 25.0 0.00 1.38 1.20 85 1004.3
20260501201508 56 126 17.0 23.0 0.00 1.38 1.20 86 1004.6
20260501200031 56 109 18.0 24.0 0.00 1.38 1.20 87 1004.5
20260501194533 56 123 17.0 28.0 0.00 1.38 1.20 87 1004.5
20260501193032 55 119 19.0 24.0 0.01 1.38 1.20 88 1004.5
20260501191530 55 115 16.0 20.0 0.01 1.38 1.20 88 1004.6
20260501190028 55 107 21.0 28.0 0.01 1.38 1.20 88 1004.5
20260501184528 55 101 18.0 27.0 0.02 1.38 1.20 88 1004.2
20260501183027 55 110 18.0 25.0 0.01 1.37 1.19 88 1004.3
20260501181532 57 101 17.0 22.0 0.01 1.37 1.19 87 1004.5
20260501180018 58 100 13.0 22.0 0.01 1.37 1.19 85 1004.5
20260501174510 58 110 12.0 19.0 0.00 1.36 1.18 85 1004.6
20260501173005 58 121 14.0 21.0 0.01 1.36 1.18 86 1004.8
20260501171509 57 126 14.0 20.0 0.02 1.36 1.18 86 1005.0